Date String (YYYY-MM-DD hh:mm:ss) UTC,Instrument flags,absolute air pressure of the measurement (hPa),sample flow rate (lpm),inlet stack bypass flow (lpm),air temperature of the measurement (°C),ambient temperature measured by the external sensor (°C),aerosol sample conditioner tube jacket temperature (°C),OPC LED temperature (°C),internal box temperature (°C),relative humidity of the measurement (%),span deviation,mass concentration of particles derived from Lorenz-Mie calculation of OPC scattering (μg/m³),mass concentration of particles derived from Lorenz-Mie calculation of OPC scattering (μg/m³),mass concentration of particles derived from Lorenz-Mie calculation of OPC scattering (μg/m³)
DateTimeUTC,F1_M11,P_M11,Q1_M11,Q2_M11,T1_M11,T2_M11,T3_M11,T4_M11,T5_M11,U1_M11,ZSPAN_M11,X0_M11,X2_M11,X1_M11
2023-09-19 18:00:00,SystemResetWarning,0829.0,5.01,000.00,027.7,024.4,000.0,036.1,029.0,18.0,0000.0,0004.10,0002.06,0001.66
2023-09-19 18:01:00,SystemResetWarning,0829.0,4.99,000.00,027.7,024.8,000.0,036.1,029.1,18.0,0000.0,0003.97,0002.05,0001.66
2023-09-19 18:02:00,SystemResetWarning,0829.0,5.00,000.00,027.7,025.2,000.0,036.1,029.1,18.0,0000.0,0003.66,0002.02,0001.66
2023-09-19 18:03:00,SystemResetWarning,0829.0,5.01,000.00,027.7,025.5,000.0,036.1,029.2,18.0,0000.0,0004.05,0002.05,0001.66
2023-09-19 18:04:00,SystemResetWarning,0829.0,4.99,000.00,027.7,025.8,000.0,036.1,029.3,17.6,0000.0,0004.16,0002.10,0001.67
2023-09-19 18:05:00,SystemResetWarning,0829.0,4.99,000.00,027.8,026.1,000.0,036.1,029.3,17.9,0000.0,0005.58,0002.15,0001.68
2023-09-19 18:06:00,SystemResetWarning,0828.9,5.01,000.00,027.8,026.3,000.0,036.1,029.4,18.3,0000.0,0006.07,0002.16,0001.70
2023-09-19 18:07:00,SystemResetWarning,0828.9,5.01,000.00,027.8,026.5,000.0,036.1,029.5,17.3,0000.0,0006.72,0002.19,0001.70
2023-09-19 18:08:00,SystemResetWarning,0829.0,4.99,000.00,027.9,026.7,000.0,036.1,029.5,17.3,0000.0,0006.67,0002.19,0001.70
2023-09-19 18:09:00,SystemResetWarning,0829.0,4.99,000.00,027.9,026.8,000.0,036.2,029.6,17.1,0000.0,0007.77,0002.19,0001.72
2023-09-19 18:10:00,SystemResetWarning,0829.0,4.99,000.00,028.0,026.9,000.0,036.2,029.7,17.1,0000.0,0007.71,0002.21,0001.72
2023-09-19 18:11:00,SystemResetWarning,0829.0,5.02,000.00,028.0,027.0,000.0,036.2,029.7,16.7,0000.0,0007.59,0002.27,0001.72
2023-09-19 18:12:00,SystemResetWarning,0828.9,5.00,000.00,028.0,026.2,000.0,036.2,029.5,16.4,0000.0,0007.71,0002.32,0001.72
2023-09-19 18:13:00,SystemResetWarning,0829.0,4.98,000.00,027.9,024.9,000.0,036.2,029.3,15.9,0000.0,0007.84,0002.40,0001.74
2023-09-19 18:14:00,SystemResetWarning,0829.0,5.02,000.00,027.9,024.8,000.0,036.2,029.2,15.7,0000.0,0007.67,0002.40,0001.75
2023-09-19 18:15:00,SystemResetWarning,0828.9,5.00,000.00,027.8,025.1,000.0,036.2,029.2,16.4,0000.0,0007.64,0002.39,0001.76
2023-09-19 18:16:00,SystemResetWarning,0828.9,5.00,000.00,027.8,025.3,000.0,036.2,029.2,16.8,0000.0,0006.79,0002.35,0001.76
2023-09-19 18:17:00,SystemResetWarning,0828.9,5.00,000.00,027.8,025.6,000.0,036.2,029.3,17.0,0000.0,0005.95,0002.30,0001.74
2023-09-19 18:18:00,SystemResetWarning,0829.0,5.00,000.00,027.8,025.9,000.0,036.2,029.4,16.1,0000.0,0005.45,0002.28,0001.75
2023-09-19 18:19:00,SystemResetWarning,0829.0,5.01,000.00,027.8,026.2,000.0,036.2,029.4,17.0,0000.0,0005.27,0002.32,0001.75
2023-09-19 18:20:00,SystemResetWarning,0828.9,5.02,000.00,027.9,026.4,000.0,036.2,029.5,18.4,0000.0,0004.01,0002.31,0001.75
2023-09-19 18:21:00,SystemResetWarning,0828.9,5.00,000.00,027.9,026.6,000.0,036.2,029.6,18.7,0000.0,0003.58,0002.31,0001.76
2023-09-19 18:22:00,SystemResetWarning,0828.9,5.00,000.00,028.0,026.8,000.0,036.2,029.6,18.4,0000.0,0004.15,0002.28,0001.77
2023-09-19 18:23:00,SystemResetWarning,0828.9,4.99,000.00,028.0,026.9,000.0,036.3,029.7,18.3,0000.0,0004.26,0002.24,0001.78
2023-09-19 18:24:00,SystemResetWarning,0828.8,5.00,000.00,028.0,026.5,000.0,036.3,029.6,18.2,0000.0,0004.17,0002.21,0001.78
2023-09-19 18:25:00,SystemResetWarning,0828.7,5.01,000.00,027.9,024.7,000.0,036.2,029.1,16.5,0000.0,0004.22,0002.21,0001.79
2023-09-19 18:26:00,SystemResetWarning,0828.7,5.01,000.00,027.8,023.8,000.0,036.1,028.9,17.8,0000.0,0004.30,0002.25,0001.80
2023-09-19 18:27:00,SystemResetWarning,0828.8,5.01,000.00,027.7,023.9,000.0,036.1,028.9,18.2,0000.0,0004.28,0002.25,0001.80
2023-09-19 18:28:00,SystemResetWarning,0828.8,5.01,000.00,027.6,024.2,000.0,036.1,028.9,21.6,0000.0,0004.34,0002.27,0001.81
2023-09-19 18:29:00,SystemResetWarning,0828.8,4.99,000.00,027.6,024.7,000.0,036.1,029.0,21.5,0000.0,0004.54,0002.32,0001.81
2023-09-19 18:30:00,SystemResetWarning,0828.8,5.00,000.00,027.6,025.1,000.0,036.1,029.0,21.2,0000.0,0004.44,0002.28,0001.82
2023-09-19 18:31:00,SystemResetWarning,0828.8,5.00,000.00,027.6,025.4,000.0,036.1,029.1,20.7,0000.0,0004.50,0002.32,0001.81
2023-09-19 18:32:00,SystemResetWarning,0828.7,5.00,000.00,027.6,025.7,000.0,036.1,029.2,21.1,0000.0,0004.60,0002.35,0001.81
2023-09-19 18:33:00,SystemResetWarning,0828.8,5.00,000.00,027.7,026.0,000.0,036.1,029.3,20.4,0000.0,0003.87,0002.34,0001.81
2023-09-19 18:34:00,SystemResetWarning,0828.8,5.00,000.00,027.7,026.2,000.0,036.1,029.3,19.6,0000.0,0003.72,0002.35,0001.82
2023-09-19 18:35:00,SystemResetWarning,0828.8,5.00,000.00,027.7,026.4,000.0,036.1,029.4,19.5,0000.0,0003.60,0002.32,0001.82
2023-09-19 18:36:00,SystemResetWarning,0828.8,5.00,000.00,027.8,026.6,000.0,036.1,029.5,18.8,0000.0,0003.54,0002.32,0001.81
2023-09-19 18:37:00,SystemResetWarning,0828.8,5.01,000.00,027.8,026.7,000.0,036.1,029.6,17.6,0000.0,0003.48,0002.29,0001.81
2023-09-19 18:38:00,SystemResetWarning,0828.8,5.00,000.00,027.9,026.8,000.0,036.1,029.6,17.4,0000.0,0004.25,0002.38,0001.82
2023-09-19 18:39:00,SystemResetWarning,0828.8,4.99,000.00,027.9,026.9,000.0,036.2,029.7,17.7,0000.0,0004.52,0002.41,0001.81
2023-09-19 18:40:00,SystemResetWarning,0828.8,4.99,000.00,028.0,027.0,000.0,036.2,029.8,18.8,0000.0,0004.69,0002.41,0001.80
2023-09-19 18:41:00,SystemResetWarning,0828.8,5.00,000.00,028.0,027.1,000.0,036.2,029.8,18.8,0000.0,0004.75,0002.40,0001.81
2023-09-19 18:42:00,SystemResetWarning,0828.8,5.00,000.00,028.1,027.2,000.0,036.3,029.8,18.5,0000.0,0004.82,0002.38,0001.80
2023-09-19 18:43:00,SystemResetWarning,0828.8,4.99,000.00,028.1,026.2,000.0,036.3,029.5,17.3,0000.0,0005.14,0002.34,0001.80
2023-09-19 18:44:00,SystemResetWarning,0828.8,5.02,000.00,028.0,025.0,000.0,036.2,029.3,17.0,0000.0,0005.87,0002.32,0001.79
2023-09-19 18:45:00,SystemResetWarning,0828.8,5.01,000.00,027.9,024.9,000.0,036.2,029.3,17.1,0000.0,0005.81,0002.30,0001.79
2023-09-19 18:46:00,SystemResetWarning,0828.8,4.99,000.00,027.8,025.1,000.0,036.2,029.3,17.4,0000.0,0005.89,0002.31,0001.79
2023-09-19 18:47:00,SystemResetWarning,0828.8,5.00,000.00,027.8,025.4,000.0,036.2,029.3,17.7,0000.0,0006.01,0002.33,0001.78
2023-09-19 18:48:00,SystemResetWarning,0828.8,5.00,000.00,027.8,025.7,000.0,036.2,029.4,17.3,0000.0,0006.13,0002.33,0001.78
2023-09-19 18:49:00,SystemResetWarning,0828.8,5.00,000.00,027.9,026.0,000.0,036.2,029.4,16.9,0000.0,0005.70,0002.28,0001.75
2023-09-19 18:50:00,SystemResetWarning,0828.8,4.99,000.00,027.9,026.2,000.0,036.2,029.5,16.8,0000.0,0006.03,0002.22,0001.75
2023-09-19 18:51:00,SystemResetWarning,0828.8,5.00,000.00,027.9,026.5,000.0,036.2,029.6,16.7,0000.0,0006.28,0002.14,0001.73
2023-09-19 18:52:00,SystemResetWarning,0828.8,5.00,000.00,028.0,026.7,000.0,036.3,029.6,17.3,0000.0,0006.61,0002.13,0001.71
2023-09-19 18:53:00,SystemResetWarning,0828.8,5.01,000.00,028.0,026.8,000.0,036.3,029.7,17.4,0000.0,0007.65,0002.11,0001.70
2023-09-19 18:54:00,SystemResetWarning,0828.8,4.99,000.00,028.1,027.0,000.0,036.3,029.7,17.2,0000.0,0007.39,0002.10,0001.69
2023-09-19 18:55:00,SystemResetWarning,0828.8,4.98,000.00,028.1,026.5,000.0,036.3,029.7,17.9,0000.0,0007.33,0002.14,0001.67
2023-09-19 18:56:00,SystemResetWarning,0828.8,5.00,000.00,028.0,024.9,000.0,036.3,029.1,17.1,0000.0,0007.46,0002.17,0001.65
2023-09-19 18:57:00,SystemResetWarning,0828.8,5.00,000.00,027.8,024.0,000.0,036.2,029.0,17.6,0000.0,0007.50,0002.16,0001.62
2023-09-19 18:58:00,SystemResetWarning,0828.8,5.00,000.00,027.7,024.2,000.0,036.2,029.0,18.0,0000.0,0008.14,0002.17,0001.61
2023-09-19 18:59:00,SystemResetWarning,0828.7,5.01,000.00,027.7,024.5,000.0,036.2,029.0,17.9,0000.0,0008.62,0002.18,0001.60
